[[{"header":{"parameterUnit":"m.s-1","parameterCategory":1,"la1":30.2991,"la2":30.254,"lo1":-89.0895,"lo2":-89.0444,"dy":0.0017,"dx":0.0017,"nx":28,"ny":28,"refTime":"2023-10-06T21:00:00:Z","depth":0,"parameterNumber":2,"parameterNumberName":"U-component_of_WINDS"},"data":[0,0,0,0,0,0,0,0,0,0,0,0,0,0,0,0,0,0,0,0,0,0,0,0,0,0,0,0,0,0,0,0,0,0,0,0,0,0,0,0,0,0,0,0,0,0,0,0,0,0,0,0,0,0,0,0,0,0,-1.1557,-1.1558,0,-1.1635,-1.1635,-1.1636,-1.1595,-1.1593,-1.1591,-1.1589,-1.1671,-1.1675,-1.1679,0,0,0,0,0,0,0,0,0,0,0,0,0,-1.1376,-1.138,-1.1557,-1.1558,-1.1559,-1.1634,-1.1635,-1.1637,-1.1595,-1.1593,-1.159,-1.1588,-1.1669,-1.1674,-1.1679,0,0,0,0,0,0,0,0,0,0,0,0,0,-1.1454,-1.1381,-1.1557,-1.1548,-1.1548,-1.1634,-1.1636,-1.1637,-1.1596,-1.1593,-1.159,-1.1587,-1.1668,-1.1674,-1.168,-1.1781,0,0,-1.1699,-1.1701,0,0,0,0,0,0,0,0,-1.145,-1.1461,-1.1548,-1.1549,-1.1549,-1.1602,-1.1601,-1.1685,-1.1597,-1.1578,-1.1589,-1.1585,-1.165,-1.1658,-1.1679,-1.1785,-1.1788,-1.1699,-1.1703,-1.1706,-1.1707,0,0,0,0,0,0,0,-1.1444,-1.1457,-1.1588,-1.1549,-1.155,-1.154,-1.1548,-1.1617,-1.1631,-1.1579,-1.1576,-1.1586,-1.165,-1.1673,-1.1681,-1.1789,-1.1699,-1.1704,-1.1708,-1.1711,-1.1982,-1.1985,0,0,0,0,0,0,-1.1439,-1.1453,-1.1586,-1.159,-1.149,-1.1546,-1.1554,-1.1588,-1.163,-1.1633,-1.1588,-1.1584,-1.1664,-1.1674,-1.1684,-1.1806,-1.1706,-1.1711,-1.1715,-1.1978,-1.1982,-1.1986,0,0,0,0,0,0,-1.1436,-1.1451,-1.1582,-1.1521,-1.1537,-1.1552,-1.159,-1.1591,-1.1615,-1.1637,-1.1639,-1.161,-1.1662,-1.1675,-1.1757,-1.1808,-1.1714,-1.172,-1.1974,-1.1979,-1.1984,-1.205,0,0,0,0,0,0,-1.1431,-1.145,-1.1489,-1.1522,-1.154,-1.1654,-1.1593,-1.1595,-1.1625,-1.162,-1.1658,-1.1661,-1.1661,-1.1748,-1.1763,-1.1815,-1.1725,-1.197,-1.1976,-1.1983,-1.2044,-1.2057,-1.2069,0,0,0,0,0,-1.1424,-1.1505,-1.1491,-1.1507,-1.1589,-1.1657,-1.1668,-1.1665,-1.1629,-1.1669,-1.1682,-1.166,-1.1799,-1.1757,-1.1773,-1.1828,-1.1966,-1.1974,-1.1982,-1.2038,-1.2055,-1.2068,0,0,0,0,0,0,-1.1479,-1.1509,-1.1494,-1.1588,-1.162,-1.165,-1.17,-1.1682,-1.1726,-1.172,-1.1715,-1.1724,-1.1809,-1.1826,-1.1778,-1.1928,-1.1877,-1.1889,-1.1914,-1.193,-1.1942,-1.1938,-1.173,0,0,0,0,0,-1.1501,-1.1554,-1.1578,-1.1658,-1.1675,-1.1684,-1.1714,-1.1709,-1.1743,-1.1757,-1.1777,-1.1811,-1.1862,-1.1896,-1.1945,-1.2045,-1.2053,-1.209,-1.2103,-1.2113,-1.2124,-1.2179,-1.2196,-1.2012,-1.2012,-1.2012,0,0,-1.1549,-1.1572,-1.1606,-1.167,-1.1694,-1.175,-1.1696,-1.1757,-1.1799,-1.1766,-1.1845,-1.1861,-1.1898,-1.199,-1.2031,-1.2007,-1.2176,-1.2123,-1.2131,-1.2136,-1.2188,-1.2206,-1.2221,-1.2017,-1.2016,-1.2015,0,0,-1.1666,-1.1688,-1.1758,-1.1783,-1.182,-1.1825,-1.1842,-1.1874,-1.1883,-1.1961,-1.1938,-1.1987,-1.2075,-1.2104,-1.2129,-1.2254,-1.2235,-1.227,-1.2336,-1.239,-1.2404,-1.2417,-1.2463,-1.248,-1.228,-1.228,-1.228,0,-1.1722,-1.1803,-1.1796,-1.1859,-1.1888,-1.1858,-1.193,-1.1954,-1.2006,-1.2027,-1.1998,-1.2108,-1.2131,-1.2229,-1.226,-1.2281,-1.2301,-1.2267,-1.2402,-1.2415,-1.2427,-1.2471,-1.2489,-1.2284,-1.2284,-1.2283,-1.2283,0,-1.1871,-1.1928,-1.198,-1.2029,-1.2063,-1.213,-1.2133,-1.2169,-1.216,-1.2168,-1.2249,-1.2275,-1.2328,-1.235,-1.2343,-1.2448,-1.2431,-1.2402,-1.2352,-1.2449,-1.2491,-1.2507,-1.229,-1.2289,-1.2287,-1.2286,0,0,-1.2027,-1.207,-1.2089,-1.2112,-1.2149,-1.2194,-1.2258,-1.2309,-1.2341,-1.2376,-1.2432,-1.2506,-1.2479,-1.2508,-1.2503,-1.2549,-1.2648,-1.2515,-1.2516,-1.2541,-1.2767,-1.2791,-1.281,-1.2634,-1.2637,-1.264,-1.2765,0,-1.2148,-1.2261,-1.2256,-1.2362,-1.2415,-1.2387,-1.2444,-1.2473,-1.2482,-1.2529,-1.2538,-1.2592,-1.2552,-1.2569,-1.2614,-1.2627,-1.2694,-1.2617,-1.2688,-1.269,-1.2682,-1.2832,-1.2857,-1.2974,-1.278,-1.2783,-1.2785,0,-1.2305,-1.2345,-1.2457,-1.2486,-1.2508,-1.2559,-1.2606,-1.265,-1.2682,-1.2685,-1.2717,-1.2704,-1.277,-1.2715,-1.2807,-1.2755,-1.2782,-1.2793,-1.2797,-1.2806,-1.2746,-1.2847,-1.3011,-1.3029,-1.281,-1.2808,-1.2806,0,-1.2411,-1.2492,-1.257,-1.2589,-1.2625,-1.2661,-1.2678,-1.2707,-1.2738,-1.2778,-1.2798,-1.2846,-1.2873,-1.291,-1.2909,-1.2869,-1.3003,-1.2948,-1.3009,-1.3009,-1.3041,-1.304,-1.3214,-1.3054,-1.3054,-1.3053,-1.3053,0,-1.2548,-1.2618,-1.2618,-1.2666,-1.2744,-1.2735,-1.2813,-1.2825,-1.2851,-1.2902,-1.2879,-1.2927,-1.2922,-1.2971,-1.297,-1.3047,-1.3059,-1.3064,-1.3064,-1.3068,-1.3068,-1.3089,-1.3082,-1.3058,-1.3057,-1.3056,-1.3055,0,-1.2681,-1.2683,-1.2766,-1.2792,-1.28,-1.2857,-1.2879,-1.2925,-1.293,-1.2995,-1.3009,-1.3019,-1.3074,-1.3076,-1.3141,-1.314,-1.3234,-1.3224,-1.3224,-1.3223,-1.3285,-1.328,-1.3481,-1.3508,-1.3328,-1.3329,-1.3331,0,-1.2771,-1.2824,-1.2855,-1.2886,-1.2905,-1.2956,-1.2987,-1.298,-1.3014,-1.3054,-1.3095,-1.3148,-1.3191,-1.3281,-1.3294,-1.3343,-1.3335,-1.3401,-1.3342,-1.3345,-1.3339,-1.3337,-1.3343,-1.3415,-1.3416,-1.3418,-1.3419,0,-1.2929,-1.2927,-1.2973,-1.3018,-1.3056,-1.3092,-1.3125,-1.3152,-1.3149,-1.3188,-1.3244,-1.3276,-1.3341,-1.3395,-1.3441,-1.3459,-1.344,-1.3437,-1.3454,-1.3461,-1.346,-1.3464,-1.3259,-1.3434,-1.3432,-1.3431,-1.343,-1.343,-1.3045,-1.3091,-1.312,-1.3171,-1.3195,-1.3226,-1.3271,-1.3281,-1.3327,-1.3379,-1.3372,-1.3434,-1.3464,-1.3525,-1.3546,-1.3596,-1.3573,-1.3597,-1.3604,-1.3611,-1.3619,-1.3449,-1.3604,-1.3603,-1.3603,-1.3603,-1.3602,0,-1.3205,-1.3222,-1.3268,-1.3315,-1.3355,-1.3331,-1.3366,-1.3402,-1.3457,-1.3486,-1.3527,-1.3592,-1.3643,-1.3659,-1.3709,-1.3745,-1.3737,-1.3759,-1.3758,-1.3762,-1.3635,-1.3616,-1.3764,-1.3764,-1.3764,-1.3764,-1.3764,-1.3764,-1.3293,-1.337,-1.3371,-1.346,-1.3476,-1.3537,-1.3559,-1.3588,-1.3611,-1.3684,-1.3726,-1.3735,-1.3759,-1.381,-1.3856,-1.3859,-1.388,-1.3905,-1.3905,-1.3787,-1.3771,-1.3756,-1.3738,-1.3909,-1.3909,-1.4028,-1.4029,-1.403]},{"header":{"parameterUnit":"m.s-1","parameterCategory":1,"la1":30.2991,"la2":30.254,"lo1":-89.0895,"lo2":-89.0444,"dy":0.0017,"dx":0.0017,"nx":28,"ny":28,"refTime":"2023-10-06T21:00:00:Z","depth":0,"parameterNumber":3,"parameterNumberName":"V-component_of_WINDS"},"data":[0,0,0,0,0,0,0,0,0,0,0,0,0,0,0,0,0,0,0,0,0,0,0,0,0,0,0,0,0,0,0,0,0,0,0,0,0,0,0,0,0,0,0,0,0,0,0,0,0,0,0,0,0,0,0,0,0,0,-6.6329,-6.633,0,-6.6427,-6.6428,-6.6429,-6.6333,-6.6329,-6.6325,-6.6322,-6.6417,-6.6423,-6.6429,0,0,0,0,0,0,0,0,0,0,0,0,0,-6.6051,-6.6057,-6.6328,-6.633,-6.6331,-6.6427,-6.6428,-6.643,-6.6333,-6.6329,-6.6324,-6.632,-6.6415,-6.6422,-6.6429,0,0,0,0,0,0,0,0,0,0,0,0,0,-6.6163,-6.6058,-6.6328,-6.6295,-6.6293,-6.6427,-6.6428,-6.643,-6.6334,-6.6329,-6.6323,-6.6318,-6.6413,-6.6421,-6.643,-6.6601,0,0,-6.6458,-6.6462,0,0,0,0,0,0,0,0,-6.6156,-6.6173,-6.6298,-6.6297,-6.6295,-6.6362,-6.6365,-6.6487,-6.6336,-6.6318,-6.6321,-6.6315,-6.6403,-6.6412,-6.6443,-6.6605,-6.6609,-6.6459,-6.6465,-6.6468,-6.6471,0,0,0,0,0,0,0,-6.6149,-6.6168,-6.6367,-6.63,-6.6298,-6.6273,-6.6282,-6.6388,-6.6391,-6.6319,-6.6313,-6.6326,-6.6401,-6.6435,-6.6445,-6.6611,-6.6459,-6.6467,-6.6473,-6.6476,-6.6916,-6.6922,0,0,0,0,0,0,-6.6146,-6.6162,-6.6364,-6.637,-6.6211,-6.6282,-6.6293,-6.6346,-6.639,-6.6391,-6.6331,-6.6321,-6.6422,-6.6434,-6.6448,-6.665,-6.6468,-6.6477,-6.6482,-6.691,-6.6918,-6.6924,0,0,0,0,0,0,-6.614,-6.6164,-6.636,-6.6265,-6.6287,-6.6293,-6.6354,-6.6351,-6.6385,-6.6398,-6.6398,-6.6365,-6.6418,-6.6435,-6.6564,-6.6652,-6.6481,-6.6489,-6.6903,-6.6912,-6.6921,-6.7056,0,0,0,0,0,0,-6.6132,-6.6163,-6.6229,-6.6267,-6.6293,-6.6477,-6.6359,-6.6357,-6.6402,-6.639,-6.6431,-6.6432,-6.6415,-6.6551,-6.6573,-6.6661,-6.6496,-6.6895,-6.6907,-6.6918,-6.7044,-6.7069,-6.709,0,0,0,0,0,-6.6123,-6.6262,-6.6233,-6.6258,-6.6376,-6.6482,-6.6497,-6.6476,-6.6409,-6.6475,-6.6483,-6.643,-6.6639,-6.6565,-6.6589,-6.6681,-6.6889,-6.6904,-6.6917,-6.7033,-6.7064,-6.709,0,0,0,0,0,0,-6.6233,-6.6267,-6.6235,-6.6391,-6.6435,-6.6466,-6.6548,-6.6509,-6.6571,-6.6558,-6.6527,-6.6537,-6.6673,-6.669,-6.6607,-6.6848,-6.6753,-6.6772,-6.6833,-6.6862,-6.6885,-6.6878,-6.6504,0,0,0,0,0,-6.6276,-6.6361,-6.6385,-6.652,-6.6544,-6.6543,-6.6588,-6.6568,-6.6611,-6.6629,-6.6646,-6.6689,-6.6763,-6.6813,-6.6883,-6.7045,-6.7052,-6.7121,-6.7144,-6.7163,-6.718,-6.7267,-6.7298,-6.697,-6.697,-6.697,0,0,-6.6365,-6.6394,-6.6449,-6.6543,-6.6575,-6.6662,-6.6559,-6.6655,-6.6719,-6.6642,-6.6766,-6.6781,-6.6825,-6.6972,-6.7037,-6.699,-6.7272,-6.7181,-6.7196,-6.7203,-6.7285,-6.7316,-6.7343,-6.698,-6.6978,-6.6976,0,0,-6.6572,-6.6603,-6.6719,-6.6753,-6.6802,-6.68,-6.6828,-6.6866,-6.6873,-6.6997,-6.6941,-6.7015,-6.7145,-6.7179,-6.7213,-6.7433,-6.7386,-6.7456,-6.7578,-6.7663,-6.7688,-6.7711,-6.7789,-6.7818,-6.7473,-6.7473,-6.7473,0,-6.6676,-6.6807,-6.6783,-6.6884,-6.6927,-6.6863,-6.698,-6.7013,-6.7082,-6.7112,-6.7058,-6.722,-6.7245,-6.7399,-6.7452,-6.7482,-6.7512,-6.7452,-6.7687,-6.771,-6.773,-6.7805,-6.7834,-6.7481,-6.748,-6.748,-6.7479,0,-6.6932,-6.7023,-6.7111,-6.7182,-6.7234,-6.7342,-6.7333,-6.7388,-6.7363,-6.7367,-6.7492,-6.7521,-6.7595,-6.763,-6.7606,-6.778,-6.7749,-6.7692,-6.7595,-6.777,-6.7839,-6.7868,-6.7493,-6.749,-6.7488,-6.7486,0,0,-6.7212,-6.7268,-6.7301,-6.7332,-6.7382,-6.7451,-6.7555,-6.763,-6.7678,-6.7727,-6.7813,-6.7924,-6.7871,-6.791,-6.7889,-6.7964,-6.8136,-6.7897,-6.7897,-6.7941,-6.8329,-6.8372,-6.8406,-6.8105,-6.811,-6.8114,-6.8325,0,-6.7421,-6.7605,-6.7586,-6.776,-6.7844,-6.7784,-6.7875,-6.7914,-6.792,-6.799,-6.7994,-6.8074,-6.7998,-6.8021,-6.8092,-6.81,-6.8213,-6.8084,-6.8183,-6.8187,-6.8175,-6.8442,-6.8488,-6.8686,-6.8352,-6.8356,-6.836,0,-6.7689,-6.775,-6.7934,-6.7971,-6.8005,-6.8087,-6.8154,-6.8222,-6.8264,-6.8262,-6.8307,-6.8273,-6.8375,-6.8277,-6.8417,-6.833,-6.8369,-6.8379,-6.8386,-6.8395,-6.8285,-6.8458,-6.8748,-6.8779,-6.8402,-6.8399,-6.8396,0,-6.7876,-6.8003,-6.813,-6.8158,-6.8204,-6.8263,-6.8285,-6.8322,-6.8367,-6.8424,-6.8454,-6.8521,-6.8558,-6.861,-6.8595,-6.8524,-6.8739,-6.8639,-6.874,-6.874,-6.8788,-6.8786,-6.9089,-6.8813,-6.8812,-6.8812,-6.8811,0,-6.8111,-6.8226,-6.8214,-6.8292,-6.8418,-6.8394,-6.8519,-6.8532,-6.8566,-6.8643,-6.8594,-6.8668,-6.8643,-6.8714,-6.8702,-6.8821,-6.8837,-6.8838,-6.8834,-6.8843,-6.8843,-6.8869,-6.8855,-6.8819,-6.8818,-6.8816,-6.8815,0,-6.8342,-6.8339,-6.8472,-6.8505,-6.8516,-6.8608,-6.8634,-6.8707,-6.8708,-6.8807,-6.8828,-6.883,-6.8912,-6.8901,-6.8992,-6.8983,-6.9131,-6.9109,-6.9118,-6.9113,-6.9215,-6.9205,-6.9546,-6.9589,-6.9284,-6.9287,-6.9289,0,-6.8493,-6.858,-6.8623,-6.8672,-6.8699,-6.8779,-6.8826,-6.8805,-6.8855,-6.891,-6.8975,-6.9053,-6.9114,-6.9247,-6.9255,-6.9324,-6.9304,-6.9418,-6.9314,-6.932,-6.9306,-6.9301,-6.931,-6.9439,-6.9443,-6.9446,-6.9448,0,-6.8762,-6.8756,-6.8826,-6.8897,-6.8955,-6.9009,-6.9057,-6.91,-6.9083,-6.9142,-6.9226,-6.9274,-6.9367,-6.9444,-6.9509,-6.9528,-6.9486,-6.9481,-6.9508,-6.9519,-6.952,-6.9521,-6.9175,-6.9473,-6.9471,-6.9469,-6.9467,-6.9466,-6.8957,-6.9032,-6.9074,-6.9154,-6.9188,-6.9235,-6.9305,-6.9315,-6.9386,-6.9461,-6.9443,-6.9538,-6.9577,-6.966,-6.9686,-6.9758,-6.9716,-6.9755,-6.9765,-6.9776,-6.9788,-6.9508,-6.977,-6.9769,-6.9768,-6.9768,-6.9767,0,-6.9224,-6.9248,-6.9322,-6.9392,-6.9455,-6.9411,-6.9462,-6.9517,-6.9601,-6.9642,-6.9704,-6.98,-6.9874,-6.9888,-6.9959,-7.0014,-6.9996,-7.0033,-7.0029,-7.0034,-6.9821,-6.9791,-7.0047,-7.0047,-7.0047,-7.0046,-7.0046,-7.0046,-6.937,-6.9494,-6.9493,-6.9633,-6.9655,-6.975,-6.9783,-6.9825,-6.9857,-6.9967,-7.003,-7.0039,-7.0068,-7.0141,-7.0206,-7.0208,-7.0237,-7.0282,-7.0276,-7.0077,-7.0049,-7.0023,-6.9994,-7.0288,-7.0288,-7.0483,-7.0485,-7.0486]}]]